| time (UTC) | temp F | wind direction | speed MPH | gust MPH | rain 1hr in | rain 24hr in | rain mn in | humidity % | barometer mb |
| 20260505041532 | 47 | 239 | 4.0 | 14.0 | 0.00 | 0.51 | 0.00 | 81 | 1005.6 |
| 20260505040028 | 47 | 280 | 3.0 | 11.0 | 0.00 | 0.51 | 0.00 | 80 | 1005.5 |
| 20260505034525 | 48 | 261 | 4.0 | 11.0 | 0.00 | 0.51 | 0.00 | 80 | 1005.5 |
| 20260505033027 | 48 | 209 | 3.0 | 12.0 | 0.00 | 0.51 | 0.00 | 79 | 1005.1 |
| 20260505031520 | 49 | 225 | 5.0 | 11.0 | 0.00 | 0.51 | 0.00 | 78 | 1004.9 |
| 20260505030025 | 49 | 275 | 4.0 | 12.0 | 0.01 | 0.51 | 0.51 | 78 | 1004.7 |
| 20260505024515 | 49 | 207 | 3.0 | 11.0 | 0.01 | 0.51 | 0.51 | 77 | 1004.5 |
| 20260505023016 | 49 | 238 | 6.0 | 15.0 | 0.01 | 0.51 | 0.51 | 77 | 1004.4 |
| 20260505021514 | 49 | 266 | 8.0 | 18.0 | 0.00 | 0.50 | 0.50 | 77 | 1004.0 |
| 20260505020012 | 49 | 178 | 6.0 | 19.0 | 0.00 | 0.50 | 0.50 | 78 | 1003.9 |
| 20260505014512 | 50 | 182 | 7.0 | 19.0 | 0.00 | 0.50 | 0.50 | 73 | 1003.8 |
| 20260505013009 | 50 | 247 | 8.0 | 19.0 | 0.00 | 0.50 | 0.50 | 73 | 1003.7 |
| 20260505011508 | 51 | 220 | 7.0 | 19.0 | 0.00 | 0.50 | 0.50 | 71 | 1003.4 |
| 20260505010006 | 51 | 255 | 5.0 | 18.0 | 0.00 | 0.50 | 0.50 | 71 | 1003.3 |
| 20260505004519 | 51 | 271 | 5.0 | 16.0 | 0.00 | 0.50 | 0.50 | 71 | 1003.3 |
| 20260505003005 | 51 | 242 | 9.0 | 20.0 | 0.00 | 0.50 | 0.50 | 69 | 1003.2 |
| 20260505001503 | 50 | 263 | 6.0 | 13.0 | 0.00 | 0.50 | 0.50 | 69 | 1002.7 |
| 20260505000002 | 50 | 208 | 5.0 | 17.0 | 0.00 | 0.55 | 0.50 | 65 | 1002.5 |
| 20260504234500 | 51 | 216 | 6.0 | 19.0 | 0.00 | 0.55 | 0.50 | 62 | 1002.4 |
| 20260504233100 | 51 | 209 | 10.0 | 18.0 | 0.00 | 0.55 | 0.50 | 59 | 1002.2 |
| 20260504231606 | 51 | 273 | 5.0 | 14.0 | 0.00 | 0.55 | 0.50 | 61 | 1002.0 |
| 20260504230100 | 50 | 235 | 5.0 | 10.0 | 0.00 | 0.57 | 0.50 | 62 | 1001.8 |
| 20260504224605 | 51 | 219 | 6.0 | 11.0 | 0.00 | 0.57 | 0.50 | 59 | 1001.7 |
| 20260504223055 | 52 | 207 | 6.0 | 11.0 | 0.00 | 0.57 | 0.50 | 56 | 1001.7 |
| 20260504221603 | 53 | 212 | 5.0 | 11.0 | 0.00 | 0.57 | 0.50 | 55 | 1001.3 |
| 20260504220054 | 54 | 234 | 3.0 | 14.0 | 0.00 | 0.65 | 0.50 | 55 | 1001.2 |
| 20260504214554 | 54 | 208 | 5.0 | 19.0 | 0.00 | 0.65 | 0.50 | 55 | 1001.1 |
| 20260504213058 | 54 | 271 | 6.0 | 12.0 | 0.00 | 0.65 | 0.50 | 54 | 1000.8 |
| 20260504211547 | 53 | 233 | 5.0 | 15.0 | 0.00 | 0.65 | 0.50 | 56 | 1000.7 |
| 20260504210055 | 54 | 213 | 9.0 | 15.0 | 0.00 | 0.68 | 0.50 | 56 | 1000.6 |
| 20260504204622 | 54 | 230 | 8.0 | 17.0 | 0.00 | 0.68 | 0.50 | 57 | 1000.3 |
| 20260504203043 | 53 | 226 | 10.0 | 26.0 | 0.00 | 0.68 | 0.50 | 59 | 1000.2 |
| 20260504201542 | 52 | 256 | 9.0 | 21.0 | 0.00 | 0.68 | 0.50 | 63 | 1000.1 |
| 20260504200042 | 53 | 284 | 7.0 | 28.0 | 0.00 | 0.72 | 0.50 | 65 | 999.9 |
| 20260504194545 | 52 | 237 | 7.0 | 20.0 | 0.00 | 0.72 | 0.50 | 68 | 999.8 |
| 20260504193033 | 51 | 284 | 8.0 | 21.0 | 0.00 | 0.72 | 0.50 | 72 | 999.4 |
| 20260504191530 | 50 | 228 | 9.0 | 18.0 | 0.00 | 0.72 | 0.50 | 75 | 999.5 |
| 20260504190033 | 49 | 190 | 12.0 | 24.0 | 0.00 | 0.73 | 0.50 | 75 | 999.1 |
| 20260504184525 | 48 | 227 | 9.0 | 19.0 | 0.00 | 0.73 | 0.50 | 77 | 999.0 |
| 20260504183020 | 48 | 234 | 10.0 | 19.0 | 0.00 | 0.73 | 0.50 | 81 | 998.8 |
| 20260504181517 | 47 | 288 | 8.0 | 19.0 | 0.00 | 0.73 | 0.50 | 84 | 998.9 |
| 20260504180014 | 45 | 233 | 5.0 | 22.0 | 0.00 | 0.73 | 0.50 | 85 | 998.4 |
| 20260504174510 | 45 | 199 | 7.0 | 19.0 | 0.00 | 0.73 | 0.50 | 87 | 998.3 |
| 20260504173008 | 44 | 227 | 6.0 | 17.0 | 0.00 | 0.73 | 0.50 | 88 | 998.3 |
| 20260504171522 | 44 | 269 | 8.0 | 16.0 | 0.00 | 0.73 | 0.50 | 89 | 998.0 |
| 20260504081545 | 37 | 255 | 4.0 | 16.0 | 0.05 | 0.44 | 0.21 | 96 | 978.0 |
| 20260504050014 | 41 | 325 | 0.0 | 4.0 | 0.01 | 0.24 | 0.01 | 92 | 974.9 |
| 20260504044522 | 41 | 18 | 0.0 | 5.0 | 0.00 | 0.23 | 0.00 | 91 | 975.1 |
| 20260504043015 | 41 | 111 | 0.0 | 9.0 | 0.00 | 0.23 | 0.00 | 90 | 975.3 |